Zurück zum Katalog

STARLINK-1641

AktivKommunikationVLEO
NORAD 46174·PAYLOAD·🇺🇸 United States

Gestartet Aug 18, 2020 von Cape Canaveral Space Force Station

Loading…

Nächste Überflüge (nächste 24 Stunden)

TLE

AktuellSource: CelesTrak SupGP

Epoche: Sep 15, 2026, 02:04 UTC

1 46174C 20057BK  26258.08659722  .00185920  00000+0  76021-3 0  2589
2 46174  53.0360  77.1214 0002701 215.1761 132.9983 15.85270081    19

Verfolge STARLINK-1641 in Echtzeit mit AllMySat

Download on the App Store